Location: Barruelo
(41.2448°N, 3.8231°W)
Time: 20:20:35
(UTC+00:00)

NOSS 2-3 (C) - Pass Details

Date: 11 December 2025
Orbit: 458 x 1718 km, 63.3° (Epoch: 12 January)

Event Time Altitude Azimuth Distance (km) Brightness Sun altitude
Rises 18:17:33 0° 224° (SW) 2,545 7.8 -16.5°
Reaches altitude 10° 18:19:44 10° 230° (SW) 1,617 6.7 -16.9°
Maximum altitude 18:23:08 52° 308° (NW) 574 3.6 -17.5°
Enters shadow 18:24:48 26° 14° (NNE) 945 4.2 -17.9°
